| time (UTC) | temp C | wind direction | speed KPH | gust KPH | rain 1hr cm | rain 24hr cm | rain mn cm | humidity % | barometer mb |
| 20260905222732 | 24 | 47 | 6.4 | 16.1 | 0.00 | 0.00 | 0.00 | 100 | 1011.1 |
| 20260905222231 | 24 | 26 | 9.7 | 16.1 | 0.00 | 0.00 | 0.00 | 100 | 1011.1 |
| 20260905221731 | 24 | 27 | 3.2 | 16.1 | 0.00 | 0.00 | 0.00 | 100 | 1011.0 |
| 20260905221231 | 24 | 52 | 4.8 | 17.7 | 0.00 | 0.00 | 0.00 | 100 | 1011.0 |
| 20260905220731 | 25 | 47 | 8.0 | 16.1 | 0.00 | 0.00 | 0.00 | 100 | 1011.0 |
| 20260905215731 | 25 | 64 | 8.0 | 17.7 | 0.00 | 0.00 | 0.00 | 100 | 1010.9 |
| 20260905214731 | 25 | 59 | 9.7 | 20.9 | 0.00 | 0.00 | 0.00 | 100 | 1010.9 |
| 20260905214230 | 25 | 50 | 11.3 | 20.9 | 0.00 | 0.00 | 0.00 | 100 | 1011.0 |
| 20260905213731 | 26 | 35 | 14.5 | 16.1 | 0.00 | 0.00 | 0.00 | 100 | 1010.9 |
| 20260905213231 | 26 | 16 | 6.4 | 19.3 | 0.00 | 0.00 | 0.00 | 100 | 1010.7 |
| 20260905212730 | 26 | 28 | 9.7 | 17.7 | 0.00 | 0.00 | 0.00 | 100 | 1010.7 |
| 20260905212230 | 26 | 355 | 8.0 | 20.9 | 0.00 | 0.00 | 0.00 | 100 | 1010.7 |
| 20260905211730 | 26 | 29 | 14.5 | 20.9 | 0.00 | 0.00 | 0.00 | 100 | 1010.7 |
| 20260905210731 | 26 | 24 | 6.4 | 22.5 | 0.00 | 0.00 | 0.00 | 100 | 1010.6 |
| 20260905210231 | 26 | 12 | 8.0 | 24.1 | 0.00 | 0.00 | 0.00 | 100 | 1010.6 |
| 20260905205230 | 27 | 43 | 4.8 | 14.5 | 0.00 | 0.00 | 0.00 | 100 | 1010.5 |
| 20260905204730 | 27 | 5 | 4.8 | 16.1 | 0.00 | 0.00 | 0.00 | 100 | 1010.4 |
| 20260905204231 | 27 | 355 | 16.1 | 17.7 | 0.00 | 0.00 | 0.00 | 100 | 1010.4 |
| 20260905203730 | 27 | 319 | 4.8 | 17.7 | 0.00 | 0.00 | 0.00 | 100 | 1010.4 |
| 20260905203230 | 27 | 341 | 17.7 | 17.7 | 0.00 | 0.00 | 0.00 | 100 | 1010.3 |
| 20260905202731 | 27 | 350 | 4.8 | 19.3 | 0.00 | 0.00 | 0.00 | 100 | 1010.3 |
| 20260905202231 | 27 | 325 | 4.8 | 19.3 | 0.00 | 0.00 | 0.00 | 100 | 1010.3 |
| 20260905201731 | 27 | 5 | 12.9 | 20.9 | 0.00 | 0.00 | 0.00 | 100 | 1010.4 |
| 20260905200729 | 28 | 360 | 14.5 | 17.7 | 0.00 | 0.00 | 0.00 | 100 | 1010.4 |
| 20260905200233 | 28 | 41 | 14.5 | 17.7 | 0.00 | 0.00 | 0.00 | 100 | 1010.5 |
| 20260905195730 | 27 | 44 | 9.7 | 17.7 | 0.00 | 0.00 | 0.00 | 100 | 1010.4 |
| 20260905195232 | 27 | 346 | 9.7 | 16.1 | 0.00 | 0.00 | 0.00 | 100 | 1010.3 |
| 20260905194731 | 27 | 28 | 1.6 | 17.7 | 0.00 | 0.00 | 0.00 | 100 | 1010.3 |
| 20260905194231 | 27 | 9 | 3.2 | 17.7 | 0.00 | 0.00 | 0.00 | 100 | 1010.3 |
| 20260905193731 | 27 | 5 | 14.5 | 17.7 | 0.00 | 0.00 | 0.00 | 100 | 1010.3 |
| 20260905192732 | 27 | 282 | 6.4 | 17.7 | 0.00 | 0.00 | 0.00 | 100 | 1010.3 |
| 20260905192231 | 27 | 360 | 3.2 | 17.7 | 0.00 | 0.00 | 0.00 | 100 | 1010.4 |
| 20260905191732 | 27 | 37 | 3.2 | 22.5 | 0.00 | 0.00 | 0.00 | 100 | 1010.4 |
| 20260905190732 | 27 | 43 | 1.6 | 14.5 | 0.00 | 0.00 | 0.00 | 100 | 1010.5 |
| 20260905185730 | 27 | 51 | 3.2 | 20.9 | 0.00 | 0.15 | 0.00 | 100 | 1010.4 |
| 20260905184730 | 27 | 346 | 4.8 | 17.7 | 0.00 | 0.15 | 0.00 | 100 | 1010.4 |
| 20260905184230 | 26 | 36 | 8.0 | 20.9 | 0.00 | 0.15 | 0.00 | 100 | 1010.5 |
| 20260905183731 | 26 | 321 | 4.8 | 20.9 | 0.00 | 0.15 | 0.00 | 100 | 1010.5 |
| 20260905183230 | 25 | 347 | 9.7 | 19.3 | 0.00 | 0.15 | 0.00 | 100 | 1010.7 |
| 20260905182730 | 26 | 322 | 8.0 | 19.3 | 0.00 | 0.15 | 0.00 | 100 | 1010.6 |
| 20260905181731 | 26 | 241 | 3.2 | 16.1 | 0.00 | 0.15 | 0.00 | 100 | 1010.6 |
| 20260905180730 | 27 | 343 | 1.6 | 6.4 | 0.00 | 0.15 | 0.00 | 100 | 1010.8 |
| 20260905180231 | 26 | 28 | 0.0 | 22.5 | 0.00 | 0.30 | 0.00 | 100 | 1010.8 |
| 20260905175730 | 26 | 327 | 1.6 | 22.5 | 0.00 | 0.30 | 0.00 | 100 | 1010.9 |
| 20260905175230 | 26 | 360 | 14.5 | 19.3 | 0.00 | 0.30 | 0.00 | 100 | 1010.9 |
| 20260905174731 | 26 | 360 | 1.6 | 19.3 | 0.00 | 0.30 | 0.00 | 100 | 1010.9 |
| 20260905173729 | 25 | 329 | 3.2 | 20.9 | 0.00 | 0.30 | 0.00 | 100 | 1011.0 |
| 20260905173231 | 25 | 62 | 14.5 | 16.1 | 0.00 | 0.30 | 0.00 | 100 | 1010.9 |
| 20260905172229 | 25 | 9 | 8.0 | 14.5 | 0.00 | 0.30 | 0.00 | 100 | 1011.2 |
| 20260905171732 | 25 | 57 | 3.2 | 12.9 | 0.00 | 0.30 | 0.00 | 100 | 1011.1 |
| 20260905171231 | 25 | 77 | 8.0 | 16.1 | 0.00 | 0.30 | 0.00 | 100 | 1011.1 |
| 20260905170230 | 25 | 15 | 6.4 | 19.3 | 0.00 | 0.41 | 0.00 | 100 | 1011.2 |
| 20260905165731 | 26 | 348 | 14.5 | 17.7 | 0.00 | 0.41 | 0.00 | 100 | 1011.3 |
| 20260905165229 | 26 | 34 | 3.2 | 17.7 | 0.00 | 0.41 | 0.00 | 100 | 1011.3 |
| 20260905163730 | 25 | 32 | 14.5 | 20.9 | 0.00 | 0.41 | 0.00 | 100 | 1011.2 |
| 20260905162730 | 25 | 348 | 16.1 | 20.9 | 0.00 | 0.41 | 0.00 | 100 | 1011.2 |
| 20260905162230 | 26 | 327 | 16.1 | 17.7 | 0.00 | 0.41 | 0.00 | 100 | 1011.3 |
| 20260905161731 | 26 | 343 | 9.7 | 17.7 | 0.00 | 0.41 | 0.00 | 100 | 1011.1 |
| 20260905161230 | 26 | 289 | 12.9 | 17.7 | 0.00 | 0.41 | 0.00 | 100 | 1011.1 |
| 20260905160729 | 26 | 355 | 9.7 | 20.9 | 0.00 | 0.41 | 0.00 | 100 | 1011.1 |
| 20260905160233 | 25 | 9 | 12.9 | 20.9 | 0.00 | 0.41 | 0.00 | 100 | 1011.1 |
| 20260905155730 | 25 | 115 | 4.8 | 19.3 | 0.00 | 0.41 | 0.00 | 100 | 1011.1 |
| 20260905155230 | 25 | 315 | 12.9 | 16.1 | 0.00 | 0.41 | 0.00 | 100 | 1011.3 |
| 20260905154732 | 26 | 254 | 8.0 | 16.1 | 0.00 | 0.41 | 0.00 | 100 | 1011.1 |
| 20260905154230 | 25 | 323 | 3.2 | 25.7 | 0.00 | 0.41 | 0.00 | 100 | 1011.2 |
| 20260905153730 | 25 | 14 | 20.9 | 20.9 | 0.00 | 0.41 | 0.00 | 100 | 1011.2 |
| 20260905153230 | 25 | 347 | 8.0 | 22.5 | 0.00 | 0.41 | 0.00 | 100 | 1011.2 |
| 20260905152731 | 25 | 341 | 14.5 | 22.5 | 0.00 | 0.41 | 0.00 | 100 | 1011.2 |
| 20260905152231 | 24 | 13 | 11.3 | 17.7 | 0.00 | 0.41 | 0.00 | 100 | 1011.3 |
| 20260905151731 | 25 | 335 | 1.6 | 20.9 | 0.00 | 0.41 | 0.00 | 100 | 1011.3 |
| 20260905150232 | 25 | 355 | 9.7 | 24.1 | 0.00 | 0.41 | 0.00 | 100 | 1011.4 |
| 20260905145730 | 25 | 355 | 16.1 | 24.1 | 0.00 | 0.41 | 0.00 | 100 | 1011.4 |
| 20260905144730 | 25 | 355 | 8.0 | 17.7 | 0.00 | 0.41 | 0.00 | 100 | 1011.3 |
| 20260905144231 | 25 | 20 | 8.0 | 16.1 | 0.00 | 0.41 | 0.00 | 100 | 1011.2 |
| 20260905143731 | 25 | 35 | 9.7 | 17.7 | 0.00 | 0.41 | 0.00 | 100 | 1011.2 |
| 20260905143230 | 25 | 68 | 9.7 | 17.7 | 0.00 | 0.41 | 0.00 | 100 | 1011.4 |
| 20260905142729 | 24 | 35 | 9.7 | 20.9 | 0.00 | 0.41 | 0.00 | 100 | 1011.3 |
| 20260905142230 | 23 | 40 | 3.2 | 20.9 | 0.00 | 0.41 | 0.00 | 100 | 1011.3 |
| 20260905141730 | 23 | 40 | 6.4 | 11.3 | 0.00 | 0.41 | 0.00 | 100 | 1011.3 |
| 20260905141230 | 23 | 44 | 1.6 | 17.7 | 0.00 | 0.41 | 0.00 | 100 | 1011.2 |
| 20260905140730 | 23 | 360 | 1.6 | 17.7 | 0.00 | 0.41 | 0.00 | 100 | 1011.2 |
| 20260905140230 | 23 | 5 | 4.8 | 17.7 | 0.00 | 0.41 | 0.00 | 100 | 1011.2 |
| 20260905135730 | 23 | 15 | 11.3 | 24.1 | 0.00 | 0.41 | 0.00 | 100 | 1011.2 |
| 20260905134731 | 24 | 40 | 19.3 | 22.5 | 0.00 | 0.41 | 0.00 | 100 | 1011.3 |
| 20260905134229 | 23 | 346 | 8.0 | 17.7 | 0.00 | 0.41 | 0.00 | 100 | 1011.2 |
| 20260905133231 | 23 | 350 | 6.4 | 20.9 | 0.00 | 0.41 | 0.00 | 100 | 1011.3 |
| 20260905131730 | 22 | 27 | 6.4 | 12.9 | 0.00 | 0.41 | 0.00 | 100 | 1011.4 |
| 20260905131232 | 22 | 14 | 4.8 | 9.7 | 0.00 | 0.41 | 0.00 | 100 | 1011.4 |
| 20260905130730 | 22 | 328 | 1.6 | 17.7 | 0.00 | 0.41 | 0.00 | 100 | 1011.4 |
| 20260905130230 | 22 | 13 | 1.6 | 17.7 | 0.00 | 0.43 | 0.00 | 100 | 1011.5 |
| 20260905125729 | 22 | 5 | 3.2 | 9.7 | 0.00 | 0.43 | 0.00 | 100 | 1011.6 |
| 20260905125229 | 22 | 360 | 4.8 | 9.7 | 0.00 | 0.43 | 0.00 | 100 | 1011.6 |
| 20260905124729 | 22 | 28 | 4.8 | 8.0 | 0.00 | 0.43 | 0.00 | 100 | 1011.6 |
| 20260905124229 | 22 | 37 | 0.0 | 8.0 | 0.00 | 0.43 | 0.00 | 100 | 1011.8 |
| 20260905123729 | 22 | 41 | 1.6 | 8.0 | 0.00 | 0.43 | 0.00 | 100 | 1011.9 |
| 20260905122729 | 22 | 18 | 4.8 | 6.4 | 0.00 | 0.43 | 0.00 | 100 | 1011.9 |
| 20260905122229 | 22 | 18 | 3.2 | 9.7 | 0.00 | 0.43 | 0.00 | 100 | 1011.9 |
| 20260905121733 | 22 | 5 | 6.4 | 9.7 | 0.00 | 0.43 | 0.00 | 100 | 1012.0 |
| 20260905121228 | 21 | 38 | 0.0 | 8.0 | 0.00 | 0.43 | 0.00 | 100 | 1012.1 |
| 20260905120729 | 21 | 36 | 1.6 | 8.0 | 0.00 | 0.43 | 0.00 | 100 | 1012.0 |
| 20260905120232 | 21 | 11 | 3.2 | 9.7 | 0.00 | 0.43 | 0.00 | 100 | 1012.0 |
| 20260905115730 | 21 | 34 | 1.6 | 9.7 | 0.00 | 0.43 | 0.00 | 100 | 1011.7 |
| 20260905115229 | 20 | 29 | 0.0 | 8.0 | 0.00 | 0.43 | 0.00 | 100 | 1011.8 |
| 20260905114730 | 20 | 339 | 0.0 | 0.0 | 0.00 | 0.43 | 0.00 | 100 | 1011.7 |
| 20260905114230 | 19 | 288 | 0.0 | 0.0 | 0.00 | 0.43 | 0.00 | 100 | 1011.6 |
| 20260905113730 | 18 | 288 | 0.0 | 1.6 | 0.00 | 0.43 | 0.00 | 100 | 1011.6 |
| 20260905113230 | 18 | 288 | 0.0 | 4.8 | 0.00 | 0.43 | 0.00 | 100 | 1011.5 |
| 20260905112729 | 18 | 287 | 0.0 | 6.4 | 0.00 | 0.43 | 0.00 | 100 | 1011.5 |
| 20260905112229 | 18 | 287 | 0.0 | 6.4 | 0.00 | 0.43 | 0.00 | 100 | 1011.5 |
| 20260905111730 | 18 | 355 | 3.2 | 3.2 | 0.00 | 0.43 | 0.00 | 100 | 1011.3 |
| 20260905111230 | 18 | 355 | 0.0 | 3.2 | 0.00 | 0.43 | 0.00 | 100 | 1011.3 |
| 20260905110730 | 18 | 355 | 0.0 | 9.7 | 0.00 | 0.43 | 0.00 | 100 | 1011.3 |
| 20260905110229 | 17 | 355 | 1.6 | 12.9 | 0.00 | 0.43 | 0.00 | 100 | 1011.2 |
| 20260905105229 | 17 | 271 | 0.0 | 6.4 | 0.00 | 0.43 | 0.00 | 100 | 1011.1 |
| 20260905104729 | 17 | 355 | 1.6 | 6.4 | 0.00 | 0.43 | 0.00 | 100 | 1011.0 |
| 20260905104229 | 17 | 277 | 0.0 | 6.4 | 0.00 | 0.43 | 0.00 | 100 | 1011.0 |
| 20260905103729 | 17 | 316 | 0.0 | 6.4 | 0.00 | 0.43 | 0.00 | 100 | 1010.9 |
| 20260905103229 | 17 | 355 | 1.6 | 3.2 | 0.00 | 0.43 | 0.00 | 100 | 1011.0 |
| 20260905102729 | 18 | 355 | 0.0 | 3.2 | 0.00 | 0.43 | 0.00 | 100 | 1011.0 |
| 20260905101730 | 18 | 355 | 0.0 | 6.4 | 0.00 | 0.43 | 0.00 | 100 | 1011.0 |
| 20260905095729 | 18 | 5 | 0.0 | 11.3 | 0.00 | 0.43 | 0.00 | 100 | 1010.6 |
| 20260905095230 | 18 | 14 | 4.8 | 11.3 | 0.00 | 0.43 | 0.00 | 100 | 1010.5 |
| 20260905094729 | 18 | 342 | 8.0 | 9.7 | 0.00 | 0.43 | 0.00 | 100 | 1010.5 |
| 20260905094230 | 18 | 342 | 4.8 | 8.0 | 0.00 | 0.43 | 0.00 | 100 | 1010.5 |
| 20260905093730 | 18 | 5 | 0.0 | 6.4 | 0.00 | 0.43 | 0.00 | 100 | 1010.5 |
| 20260905092729 | 19 | 5 | 0.0 | 8.0 | 0.00 | 0.43 | 0.00 | 100 | 1010.4 |
| 20260905092230 | 19 | 5 | 0.0 | 8.0 | 0.00 | 0.43 | 0.00 | 100 | 1010.4 |
| 20260905091730 | 19 | 350 | 3.2 | 8.0 | 0.00 | 0.43 | 0.00 | 100 | 1010.4 |
| 20260905091229 | 19 | 348 | 3.2 | 4.8 | 0.00 | 0.43 | 0.00 | 100 | 1010.4 |
| 20260905085729 | 20 | 26 | 4.8 | 9.7 | 0.00 | 0.43 | 0.00 | 100 | 1010.4 |
| 20260905085229 | 20 | 355 | 4.8 | 14.5 | 0.00 | 0.43 | 0.00 | 100 | 1010.4 |
| 20260905084730 | 20 | 17 | 6.4 | 16.1 | 0.00 | 0.43 | 0.00 | 100 | 1010.4 |
| 20260905084228 | 20 | 19 | 6.4 | 16.1 | 0.00 | 0.43 | 0.00 | 100 | 1010.4 |
| 20260905083729 | 20 | 12 | 4.8 | 14.5 | 0.00 | 0.43 | 0.00 | 100 | 1010.4 |
| 20260905083229 | 20 | 36 | 6.4 | 12.9 | 0.00 | 0.43 | 0.00 | 100 | 1010.5 |
| 20260905082229 | 20 | 13 | 11.3 | 17.7 | 0.00 | 0.43 | 0.00 | 100 | 1010.5 |
| 20260905081729 | 20 | 340 | 9.7 | 14.5 | 0.00 | 0.43 | 0.00 | 100 | 1010.5 |
| 20260905081228 | 21 | 5 | 3.2 | 17.7 | 0.00 | 0.43 | 0.00 | 100 | 1010.5 |
| 20260905080729 | 21 | 20 | 14.5 | 17.7 | 0.00 | 0.43 | 0.00 | 100 | 1010.5 |
| 20260905075729 | 21 | 360 | 3.2 | 16.1 | 0.00 | 0.46 | 0.00 | 100 | 1010.4 |
| 20260905075228 | 21 | 355 | 0.0 | 16.1 | 0.00 | 0.46 | 0.00 | 100 | 1010.5 |
| 20260905074729 | 21 | 344 | 3.2 | 16.1 | 0.00 | 0.46 | 0.00 | 100 | 1010.4 |
| 20260905074229 | 21 | 346 | 16.1 | 19.3 | 0.00 | 0.46 | 0.00 | 100 | 1010.4 |
| 20260905073728 | 21 | 336 | 8.0 | 22.5 | 0.00 | 0.46 | 0.00 | 100 | 1010.4 |
| 20260905073228 | 21 | 355 | 14.5 | 22.5 | 0.00 | 0.46 | 0.00 | 100 | 1010.4 |
| 20260905072729 | 21 | 328 | 9.7 | 19.3 | 0.00 | 0.46 | 0.00 | 100 | 1010.3 |
| 20260905071730 | 21 | 323 | 4.8 | 20.9 | 0.00 | 0.46 | 0.00 | 100 | 1010.4 |
| 20260905071230 | 21 | 333 | 6.4 | 20.9 | 0.00 | 0.46 | 0.00 | 100 | 1010.4 |
| 20260905070729 | 21 | 11 | 8.0 | 16.1 | 0.00 | 0.46 | 0.00 | 100 | 1010.4 |
| 20260905070230 | 21 | 9 | 3.2 | 17.7 | 0.00 | 0.56 | 0.00 | 100 | 1010.4 |
| 20260905065229 | 21 | 350 | 9.7 | 16.1 | 0.00 | 0.56 | 0.00 | 100 | 1010.5 |
| 20260905064729 | 21 | 19 | 4.8 | 16.1 | 0.00 | 0.56 | 0.00 | 100 | 1010.6 |
| 20260905064229 | 21 | 14 | 8.0 | 16.1 | 0.00 | 0.56 | 0.00 | 100 | 1010.7 |
| 20260905063728 | 21 | 16 | 3.2 | 14.5 | 0.00 | 0.56 | 0.00 | 100 | 1010.8 |
| 20260905062729 | 21 | 19 | 4.8 | 12.9 | 0.00 | 0.56 | 0.00 | 100 | 1010.9 |
| 20260905062228 | 21 | 34 | 9.7 | 12.9 | 0.00 | 0.56 | 0.00 | 100 | 1010.8 |
| 20260905061729 | 21 | 355 | 3.2 | 14.5 | 0.00 | 0.56 | 0.00 | 100 | 1010.9 |
| 20260905061229 | 21 | 327 | 8.0 | 14.5 | 0.00 | 0.56 | 0.00 | 100 | 1010.9 |
| 20260905060728 | 21 | 9 | 3.2 | 12.9 | 0.00 | 0.56 | 0.00 | 100 | 1010.9 |
| 20260905060230 | 21 | 5 | 8.0 | 9.7 | 0.00 | 1.32 | 0.00 | 100 | 1010.9 |
| 20260905055730 | 21 | 360 | 4.8 | 9.7 | 0.00 | 1.32 | 0.00 | 100 | 1010.9 |
| 20260905054729 | 21 | 360 | 0.0 | 12.9 | 0.00 | 1.32 | 0.00 | 100 | 1011.1 |
| 20260905053729 | 21 | 5 | 4.8 | 9.7 | 0.00 | 1.32 | 0.00 | 100 | 1011.2 |
| 20260905053229 | 21 | 11 | 4.8 | 12.9 | 0.00 | 1.32 | 0.00 | 100 | 1011.2 |
| 20260905052229 | 21 | 355 | 3.2 | 14.5 | 0.00 | 1.32 | 0.00 | 100 | 1011.2 |
| 20260905051730 | 21 | 21 | 6.4 | 12.9 | 0.00 | 1.32 | 0.00 | 100 | 1011.3 |
| 20260905050729 | 21 | 355 | 4.8 | 9.7 | 0.00 | 1.32 | 0.00 | 100 | 1011.4 |
| 20260905050232 | 21 | 355 | 3.2 | 6.4 | 0.00 | 1.32 | 0.00 | 100 | 1011.4 |
| 20260905045730 | 21 | 355 | 1.6 | 6.4 | 0.00 | 1.35 | 0.00 | 100 | 1011.3 |
| 20260905045231 | 21 | 355 | 1.6 | 9.7 | 0.00 | 1.35 | 0.00 | 100 | 1011.4 |
| 20260905043730 | 22 | 22 | 3.2 | 9.7 | 0.00 | 1.35 | 0.00 | 100 | 1011.5 |
| 20260905043232 | 22 | 335 | 6.4 | 9.7 | 0.00 | 1.35 | 0.00 | 100 | 1011.5 |
| 20260905042731 | 22 | 5 | 3.2 | 9.7 | 0.00 | 1.35 | 0.00 | 100 | 1011.5 |
| 20260905042230 | 22 | 9 | 6.4 | 14.5 | 0.00 | 1.35 | 0.00 | 100 | 1011.6 |
| 20260905041730 | 22 | 350 | 8.0 | 16.1 | 0.00 | 1.35 | 0.00 | 100 | 1011.5 |
| 20260905041231 | 22 | 10 | 11.3 | 16.1 | 0.00 | 1.35 | 0.00 | 100 | 1011.5 |
| 20260905040731 | 22 | 24 | 12.9 | 17.7 | 0.00 | 1.35 | 0.00 | 100 | 1011.5 |
| 20260905035733 | 22 | 355 | 8.0 | 12.9 | 0.00 | 1.35 | 1.35 | 100 | 1011.6 |
| 20260905035231 | 22 | 336 | 4.8 | 12.9 | 0.00 | 1.35 | 1.35 | 100 | 1011.7 |
| 20260905034733 | 22 | 315 | 6.4 | 12.9 | 0.00 | 1.35 | 1.35 | 100 | 1011.7 |
| 20260905034231 | 22 | 5 | 6.4 | 12.9 | 0.00 | 1.35 | 1.35 | 100 | 1011.6 |
| 20260905033232 | 22 | 310 | 0.0 | 12.9 | 0.00 | 1.35 | 1.35 | 100 | 1011.6 |
| 20260905032733 | 22 | 23 | 3.2 | 16.1 | 0.00 | 1.35 | 1.35 | 100 | 1011.6 |
| 20260905032232 | 22 | 350 | 8.0 | 16.1 | 0.00 | 1.35 | 1.35 | 100 | 1011.6 |
| 20260905031733 | 22 | 5 | 4.8 | 14.5 | 0.00 | 1.35 | 1.35 | 100 | 1011.6 |
| 20260905031231 | 22 | 332 | 9.7 | 14.5 | 0.00 | 1.35 | 1.35 | 100 | 1011.6 |
| 20260905030731 | 22 | 355 | 1.6 | 14.5 | 0.00 | 1.35 | 1.35 | 100 | 1011.5 |
| 20260905025731 | 22 | 19 | 1.6 | 11.3 | 0.00 | 1.42 | 1.35 | 100 | 1011.4 |
| 20260905025231 | 22 | 29 | 1.6 | 9.7 | 0.00 | 1.42 | 1.35 | 100 | 1011.3 |
| 20260905024732 | 22 | 338 | 1.6 | 12.9 | 0.00 | 1.42 | 1.35 | 100 | 1011.3 |
| 20260905023731 | 22 | 324 | 1.6 | 9.7 | 0.00 | 1.42 | 1.35 | 100 | 1011.3 |
| 20260905023231 | 22 | 281 | 6.4 | 9.7 | 0.00 | 1.42 | 1.35 | 100 | 1011.3 |
| 20260905022232 | 22 | 338 | 6.4 | 9.7 | 0.00 | 1.42 | 1.35 | 100 | 1011.2 |
| 20260905021731 | 22 | 344 | 3.2 | 9.7 | 0.00 | 1.42 | 1.35 | 100 | 1011.3 |
| 20260905021231 | 22 | 349 | 1.6 | 9.7 | 0.00 | 1.42 | 1.35 | 100 | 1011.3 |
| 20260905020731 | 22 | 346 | 1.6 | 8.0 | 0.00 | 1.42 | 1.35 | 100 | 1011.4 |
| 20260905020232 | 22 | 317 | 1.6 | 8.0 | 0.00 | 1.42 | 1.35 | 100 | 1011.5 |
| 20260905015732 | 22 | 346 | 6.4 | 6.4 | 0.00 | 1.42 | 1.35 | 100 | 1011.4 |
| 20260905015231 | 22 | 340 | 3.2 | 8.0 | 0.00 | 1.42 | 1.35 | 100 | 1011.4 |
| 20260905014731 | 22 | 347 | 4.8 | 8.0 | 0.00 | 1.42 | 1.35 | 100 | 1011.3 |
| 20260905014230 | 22 | 334 | 6.4 | 6.4 | 0.00 | 1.42 | 1.35 | 100 | 1011.4 |
| 20260905013231 | 22 | 348 | 0.0 | 14.5 | 0.00 | 1.42 | 1.35 | 100 | 1011.3 |
| 20260905012730 | 22 | 5 | 3.2 | 14.5 | 0.00 | 1.42 | 1.35 | 100 | 1011.3 |
| 20260905012231 | 22 | 334 | 3.2 | 6.4 | 0.00 | 1.42 | 1.35 | 100 | 1011.3 |
| 20260905011731 | 22 | 311 | 0.0 | 6.4 | 0.00 | 1.42 | 1.35 | 100 | 1011.5 |
| 20260905011231 | 22 | 320 | 0.0 | 6.4 | 0.00 | 1.42 | 1.35 | 100 | 1011.5 |
| 20260905010731 | 22 | 320 | 0.0 | 6.4 | 0.00 | 1.42 | 1.35 | 100 | 1011.5 |
| 20260905005732 | 22 | 337 | 1.6 | 8.0 | 0.00 | 1.42 | 1.35 | 100 | 1011.6 |
| 20260905005230 | 22 | 307 | 4.8 | 8.0 | 0.00 | 1.42 | 1.35 | 100 | 1011.4 |
| 20260905004731 | 22 | 304 | 3.2 | 8.0 | 0.00 | 1.42 | 1.35 | 100 | 1011.4 |
| 20260905004230 | 22 | 327 | 0.0 | 8.0 | 0.00 | 1.42 | 1.35 | 100 | 1011.5 |
| 20260905003731 | 22 | 284 | 0.0 | 3.2 | 0.00 | 1.42 | 1.35 | 100 | 1011.3 |
| 20260905003230 | 22 | 281 | 0.0 | 4.8 | 0.00 | 1.42 | 1.35 | 100 | 1011.4 |
| 20260905002731 | 22 | 279 | 0.0 | 6.4 | 0.00 | 1.42 | 1.35 | 100 | 1011.4 |
| 20260905002231 | 22 | 279 | 6.4 | 6.4 | 0.00 | 1.42 | 1.35 | 100 | 1011.5 |
| 20260905001731 | 23 | 279 | 4.8 | 4.8 | 0.00 | 1.42 | 1.35 | 100 | 1011.3 |
| 20260905000731 | 23 | 277 | 3.2 | 6.4 | 0.00 | 1.42 | 1.35 | 100 | 1011.3 |
| 20260905000233 | 23 | 278 | 1.6 | 6.4 | 0.00 | 1.42 | 1.35 | 100 | 1011.3 |
| 20260904235231 | 23 | 275 | 4.8 | 6.4 | 0.00 | 1.42 | 1.35 | 100 | 1011.3 |
| 20260904234730 | 24 | 275 | 4.8 | 6.4 | 0.00 | 1.42 | 1.35 | 100 | 1011.4 |
| 20260904234230 | 24 | 272 | 0.0 | 4.8 | 0.00 | 1.42 | 1.35 | 100 | 1011.3 |
| 20260904232730 | 25 | 269 | 4.8 | 9.7 | 0.00 | 1.42 | 1.35 | 100 | 1011.3 |
| 20260904231730 | 25 | 274 | 4.8 | 9.7 | 0.00 | 1.42 | 1.35 | 100 | 1011.1 |
| 20260904231231 | 25 | 276 | 0.0 | 9.7 | 0.00 | 1.42 | 1.35 | 100 | 1011.1 |
| 20260904230730 | 26 | 277 | 6.4 | 11.3 | 0.00 | 1.42 | 1.35 | 100 | 1011.1 |
| 20260904225731 | 26 | 284 | 9.7 | 16.1 | 0.00 | 1.42 | 1.35 | 100 | 1011.1 |
| 20260904225230 | 26 | 263 | 9.7 | 16.1 | 0.00 | 1.42 | 1.35 | 100 | 1011.2 |
| 20260904224230 | 26 | 336 | 3.2 | 17.7 | 0.00 | 1.42 | 1.35 | 100 | 1011.2 |
| 20260904223730 | 26 | 295 | 3.2 | 12.9 | 0.00 | 1.42 | 1.35 | 100 | 1011.2 |
| 20260904223230 | 26 | 284 | 1.6 | 8.0 | 0.00 | 1.42 | 1.35 | 100 | 1011.3 |